Temp
1 1 1 2 2 2 1 1 1 2 2 2 2 2 2 2 3 3 3 3 3 3 4 7 8 8 9 8 6 8 7 6 6 8 10 11 11 13 13 14 12 11 12 12 13 12 12 18 17 16 16 17 17 18
2 2 3 3 3 3 2 2 1 2 2 2 2 2 2 3 3 3 3 3 3 3 4 6 7 9 10 10 8 6 9 8 9 10 11 12 11 12 13 13 15 13 15 15 15 15 16 17 17 16 15 15 15 15
2 3 3 2 2 3 3 2 2 2 2 2 3 3 2 2 3 2 3 4 3 3 3 5 7 7 8 9 8 6 8 9 9 12 10 11 10 13 12 13 15 15 16 14 15 16 17 17 16 13 13 13 13 14
3 2 3 3 4 3 3 3 2 2 3 3 2 2 3 3 3 3 3 3 3 3 5 6 6 7 8 8 8 7 8 9 9 9 10 10 10 13 13 14 14 15 16 14 15 16 17 17 14 12 11 12 11 12
3 4 4 5 5 4 3 3 3 3 3 3 3 3 3 3 3 3 3 3 3 6 6 7 6 6 8 7 8 7 7 8 8 7 7 8 11 11 12 12 13 15 15 14 14 13 12 13 13 10 10 10 10 9
4 5 5 5 5 5 5 4 3 3 3 3 3 3 3 3 3 2 2 3 3 4 5 6 8 7 7 7 8 8 7 7 7 7 7 9 11 10 11 12 15 11 10 10 11 10 10 11 11 8 8 8 7 6
4 4 4 4 5 5 6 5 5 5 5 5 4 4 3 3 2 3 5 4 3 3 5 7 9 8 8 8 8 7 8 8 8 7 7 7 9 11 8 10 7 7 7 8 7 5 9 6 7 5 5 5 4 5
4 4 4 4 4 4 5 5 5 5 5 5 5 5 4 3 3 3 4 3 3 4 5 7 7 7 8 8 8 8 8 7 5 6 6 8 10 8 8 4 5 6 6 7 4 5 4 4 3 2 3 3 4 2
4 4 3 3 4 4 5 5 5 5 5 6 5 4 4 3 4 4 4 3 4 4 6 6 7 7 8 8 9 8 7 6 6 6 6 9 7 8 2 2 2 1 2 3 4 5 4 3 1 -0 0 -0 1 -1
4 3 4 4 4 4 4 5 5 5 5 5 4 2 3 4 4 3 3 3 3 5 6 7 8 6 6 7 8 8 8 8 7 7 4 7 4 1 1 0 -0 -0 1 1 2 4 2 2 1 -1 -2 -3 -3 -4
4 4 4 4 4 4 4 5 5 4 4 4 3 4 4 4 5 4 4 6 4 5 5 7 7 6 6 7 7 8 7 7 8 6 7 6 5 1 1 0 -1 -1 -1 -1 -1 -1 -1 -1 -1 -2 -3 -4 -5 -6
4 4 4 4 4 5 4 4 5 5 4 4 3 3 2 2 4 6 6 4 6 6 4 5 6 7 5 5 7 7 7 7 8 6 7 6 1 -0 -1 -2 -2 -2 -2 -3 -3 -3 -3 -3 -4 -4 -5 -6 -7 -8
4 4 5 5 4 4 5 5 5 5 5 5 5 2 5 3 4 6 6 6 6 4 4 4 5 5 4 4 5 7 8 6 5 5 4 1 -0 -1 -2 -2 -3 -3 -4 -4 -5 -6 -6 -6 -6 -7 -7 -8 -8 -9
4 4 4 6 5 5 4 6 7 6 4 4 3 1 2 2 2 1 2 2 2 2 3 3 5 5 4 4 4 5 3 5 5 5 2 -1 -2 -3 -3 -3 -3 -5 -5 -5 -6 -7 -7 -8 -8 -8 -9 -9 -9 -10
3 3 4 5 5 4 5 5 6 3 1 1 1 -0 -0 -1 -1 -1 -1 1 1 1 2 4 3 4 3 3 2 3 4 3 3 2 -1 -2 -3 -3 -4 -5 -5 -6 -6 -7 -7 -8 -8 -8 -9 -9 -9 -10 -10 -10
3 4 2 3 3 4 4 5 2 1 0 -1 -2 -1 -1 -0 -1 -1 -1 0 0 -0 2 4 3 4 2 2 2 1 4 3 -1 -2 -3 -3 -4 -5 -5 -5 -6 -6 -7 -7 -8 -8 -9 -9 -9 -9 -10 -11 -11 -11
3 3 2 2 2 2 3 0 -1 -2 -2 -2 -3 -3 -3 -2 -2 -2 -2 -1 -1 1 3 3 3 1 2 1 -0 -1 -1 -2 -3 -3 -3 -4 -5 -6 -6 -6 -7 -7 -7 -7 -8 -8 -8 -9 -9 -9 -9 -9 -10 -11
3 2 3 3 3 2 -1 -1 -1 -1 -3 -3 -3 -3 -3 -3 -3 -2 -2 -2 0 1 1 -0 1 -0 -1 -0 -1 -3 -4 -4 -4 -5 -5 -6 -6 -7 -7 -7 -7 -7 -8 -8 -8 -8 -8 -8 -8 -8 -9 -10 -11 -11
2 2 3 3 3 1 1 -0 -0 -2 -3 -3 -3 -3 -3 -3 -3 -3 -2 -2 -1 -0 -1 -1 -2 -2 -3 -3 -3 -4 -4 -5 -5 -6 -7 -8 -8 -8 -8 -9 -9 -8 -8 -8 -8 -9 -10 -10 -9 -9 -10 -10 -10 -11
3 3 3 3 3 2 0 -1 -0 -1 -2 -3 -3 -4 -4 -4 -4 -4 -3 -2 -2 -2 -4 -4 -5 -5 -4 -4 -5 -5 -5 -5 -5 -6 -7 -7 -8 -8 -8 -8 -8 -9 -9 -10 -10 -9 -10 -10 -11 -12 -12 -11 -11 -12
3 3 3 3 1 1 1 0 -1 -1 -2 -3 -3 -3 -4 -4 -4 -5 -4 -2 -4 -5 -5 -6 -6 -6 -6 -6 -6 -5 -6 -5 -5 -5 -6 -7 -8 -8 -9 -10 -10 -9 -9 -9 -10 -11 -11 -11 -12 -13 -13 -14 -14 -14
2 3 3 2 2 2 1 0 0 -0 0 -0 -1 -2 -3 -4 -4 -5 -3 -5 -6 -7 -6 -6 -6 -6 -6 -7 -7 -7 -8 -8 -9 -9 -9 -9 -7 -8 -9 -10 -10 -11 -11 -11 -11 -12 -12 -13 -14 -14 -14 -15 -15 -15
3 2 1 2 1 1 0 -0 1 1 0 -0 -1 -2 -3 -3 -4 -3 -5 -5 -6 -7 -7 -7 -8 -8 -8 -9 -9 -9 -9 -8 -9 -9 -10 -10 -11 -11 -11 -11 -11 -11 -12 -13 -13 -13 -14 -15 -16 -15 -15 -15 -15 -15
2 -3 -2 0 1 -1 -1 -0 1 0 0 -1 -1 -3 -4 -4 -3 -4 -5 -6 -7 -7 -7 -7 -7 -7 -8 -8 -8 -9 -10 -10 -10 -10 -10 -10 -10 -11 -12 -13 -13 -13 -13 -14 -14 -15 -15 -16 -16 -15 -16 -15 -16 -15
0 -5 -2 -2 -1 -1 -1 -1 -1 -1 -1 -2 -2 -3 -4 -3 -4 -4 -5 -6 -7 -7 -8 -8 -7 -7 -7 -8 -9 -10 -11 -9 -9 -10 -12 -11 -12 -12 -13 -13 -14 -15 -15 -14 -14 -15 -16 -16 -16 -16 -16 -16 -16 -16
-4 -6 -3 -3 -2 -0 -1 -1 -1 -2 -2 -4 -5 -5 -5 -4 -5 -5 -5 -6 -7 -8 -8 -7 -7 -7 -8 -8 -8 -9 -11 -11 -11 -11 -13 -13 -13 -12 -12 -12 -12 -14 -16 -16 -15 -15 -16 -17 -17 -17 -16 -17 -18 -18
-4 -6 -6 -7 -5 -3 -3 -3 -3 -3 -4 -4 -5 -6 -5 -6 -6 -7 -8 -9 -7 -10 -10 -10 -9 -8 -9 -11 -12 -13 -13 -14 -13 -14 -15 -15 -15 -15 -14 -14 -14 -16 -17 -17 -17 -16 -16 -17 -17 -17 -17 -17 -18 -18
-7 -7 -7 -10 -8 -8 -8 -7 -7 -7 -6 -7 -6 -8 -8 -7 -7 -8 -9 -12 -12 -12 -13 -13 -12 -12 -12 -13 -14 -14 -15 -15 -15 -16 -16 -16 -17 -17 -17 -18 -17 -17 -18 -18 -18 -18 -18 -18 -17 -18 -18 -18 -18 -19
-8 -9 -9 -12 -10 -10 -10 -10 -9 -9 -10 -8 -8 -9 -9 -11 -12 -11 -12 -12 -12 -12 -12 -13 -15 -15 -15 -15 -16 -15 -15 -15 -13 -13 -13 -12 -14 -16 -18 -18 -18 -18 -19 -18 -18 -18 -18 -19 -19 -19 -19 -19 -20 -21
-9 -9 -10 -11 -11 -10 -11 -11 -11 -12 -11 -10 -9 -10 -10 -12 -13 -13 -12 -12 -11 -12 -13 -14 -15 -13 -14 -13 -15 -16 -16 -16 -16 -15 -13 -13 -15 -17 -18 -19 -19 -19 -19 -19 -19 -19 -19 -19 -19 -19 -20 -20 -20 -20
-9 -9 -9 -9 -10 -10 -11 -10 -11 -10 -10 -10 -10 -10 -11 -11 -13 -15 -15 -15 -15 -15 -14 -14 -15 -15 -14 -14 -13 -14 -14 -17 -16 -17 -17 -18 -18 -19 -19 -19 -19 -19 -20 -20 -20 -20 -20 -20 -20 -20 -20 -20 -21 -22
-10 -10 -10 -10 -10 -11 -12 -10 -9 -9 -9 -9 -10 -10 -11 -10 -11 -12 -16 -15 -14 -12 -13 -14 -13 -14 -15 -15 -15 -16 -16 -17 -17 -18 -18 -19 -19 -19 -19 -19 -19 -20 -20 -21 -21 -21 -21 -21 -21 -21 -21 -21 -22 -22
-8 -8 -8 -9 -10 -9 -10 -9 -8 -9 -9 -9 -11 -13 -13 -11 -11 -13 -16 -15 -15 -14 -14 -15 -15 -15 -15 -16 -16 -16 -17 -17 -18 -18 -19 -19 -19 -20 -20 -20 -20 -20 -20 -21 -21 -21 -22 -22 -21 -22 -22 -22 -22 -23
Height
678 673 668 663 661 661 664 670 677 682 688 693 698 703 708 714 721 729 731 737 742 741 740 733 731 731 732 737 741 738 745 745 749 741 730 725 722 714 712 708 718 725 723 723 720 724 724 696 700 704 705 702 703 699
664 657 652 649 648 648 647 653 662 669 675 680 685 690 696 702 709 719 724 729 736 739 733 727 727 727 727 726 733 738 726 730 730 727 721 719 720 717 708 708 706 712 703 703 704 702 700 700 700 704 708 707 706 707
650 644 641 638 637 637 639 643 650 656 662 667 672 678 683 689 697 705 713 721 731 735 730 726 719 720 722 724 730 733 729 727 725 720 725 719 722 710 712 706 700 700 698 703 704 698 698 697 702 714 716 715 714 711
639 634 629 626 623 626 630 634 639 645 651 656 661 666 671 677 682 693 704 712 722 721 719 711 713 713 713 719 723 727 726 726 726 727 723 721 719 709 705 702 702 697 696 702 699 697 697 699 710 717 719 718 718 716
628 623 620 618 617 616 620 624 630 636 642 647 652 658 664 670 678 690 700 704 710 712 705 703 708 708 709 713 717 722 724 725 724 727 730 728 715 715 708 709 700 695 697 699 698 706 711 710 713 721 718 718 718 718
622 618 614 612 611 611 613 616 620 626 632 639 644 652 660 667 676 685 696 697 701 705 708 701 699 702 706 710 714 717 721 722 724 722 724 719 717 720 709 696 692 709 714 716 710 720 719 717 716 725 723 721 721 722
619 613 607 604 604 604 606 610 615 620 626 632 639 645 656 665 672 679 680 683 695 702 703 698 692 700 703 708 710 715 718 718 719 720 722 721 716 711 716 705 720 724 724 723 726 728 719 726 724 729 729 729 726 725
618 612 607 602 599 599 602 605 611 617 624 630 637 646 655 666 676 680 680 683 694 702 704 698 696 700 702 703 706 710 712 717 722 722 720 715 711 715 708 731 728 728 728 725 732 732 733 732 733 734 733 732 729 730
618 612 608 601 594 594 596 603 609 616 622 630 638 646 656 666 673 676 679 687 693 698 695 696 690 692 698 698 700 707 713 717 718 716 712 706 711 708 739 737 739 742 739 737 734 730 732 734 737 738 736 738 735 735
618 613 611 605 598 596 596 602 611 618 625 632 641 650 654 664 669 677 686 691 694 695 693 686 687 694 698 697 696 701 703 705 705 708 714 708 722 743 745 748 749 747 744 742 735 728 735 735 738 741 742 743 742 743
622 617 615 612 607 601 601 607 614 621 629 637 645 646 656 666 671 678 682 681 689 692 690 685 689 691 697 693 694 696 701 701 695 705 702 709 718 743 747 749 751 750 748 746 746 746 745 743 742 744 745 749 750 750
626 623 621 619 617 616 612 618 621 628 634 638 642 653 664 672 672 672 675 684 681 678 687 687 688 689 695 697 693 696 693 698 686 706 700 704 742 750 752 753 753 752 751 752 751 750 750 749 750 751 753 756 756 757
631 629 627 626 626 625 625 627 630 635 638 644 651 665 665 677 675 665 667 671 675 686 688 688 688 692 697 698 694 688 683 694 705 706 712 733 748 752 754 755 756 757 757 757 758 758 757 757 758 759 761 763 763 763
636 635 634 633 635 635 636 638 639 640 642 652 660 676 678 683 688 691 690 689 694 694 691 690 687 687 694 692 695 693 710 704 704 707 726 746 754 758 760 761 761 764 765 765 766 766 765 766 768 769 769 769 769 770
641 640 639 639 640 640 641 642 641 641 656 669 674 688 694 702 702 703 702 698 698 698 694 688 691 691 694 697 704 705 706 709 715 722 744 754 760 762 764 767 769 770 771 771 772 772 772 772 774 775 776 776 777 778
644 643 646 645 644 643 643 643 644 655 674 688 701 699 705 699 703 703 703 699 701 699 694 689 690 690 703 705 708 719 702 711 740 749 756 762 766 769 771 773 774 775 776 776 777 778 778 779 780 782 784 784 785 786
645 648 649 648 647 646 646 650 663 680 695 704 712 715 714 713 713 711 709 706 705 697 692 692 695 712 711 713 725 734 736 745 753 759 763 768 771 775 777 778 779 780 781 781 782 783 784 786 787 787 788 790 791 793
648 649 648 648 649 649 655 664 676 692 708 715 715 718 718 719 716 715 713 710 703 701 703 713 714 720 725 726 736 752 755 760 764 767 772 775 778 780 781 782 784 785 785 786 787 788 789 790 791 793 795 796 797 798
650 649 649 648 649 653 666 680 686 703 717 718 721 721 721 723 723 721 717 716 713 712 715 722 730 736 744 748 751 758 763 766 771 776 780 783 784 785 786 788 789 789 790 791 792 794 795 796 797 798 799 799 800 801
652 652 651 650 651 660 678 691 695 705 717 725 725 726 726 729 728 727 725 722 720 723 735 746 755 758 757 760 762 766 770 773 775 778 784 787 789 790 791 791 793 794 795 797 798 798 800 801 803 804 804 803 804 805
654 654 653 653 659 670 686 695 703 713 721 725 729 729 733 734 733 732 730 729 733 748 759 766 767 768 768 769 771 773 776 777 779 780 785 789 793 794 795 797 798 798 799 800 802 804 805 806 807 808 808 808 809 809
656 656 657 659 669 682 693 701 704 712 715 722 724 728 733 737 738 743 744 747 762 772 772 773 773 774 776 778 781 782 785 786 788 790 793 794 795 797 799 801 801 803 804 806 806 807 809 810 810 811 811 811 812 812
657 658 662 668 678 689 707 708 706 710 714 721 726 731 738 741 747 749 758 770 778 782 782 782 783 784 785 788 789 790 791 791 793 796 798 800 802 804 804 805 806 807 808 809 810 810 811 812 812 813 813 813 813 814
661 670 677 680 684 702 708 709 710 714 717 722 728 737 745 747 752 757 772 780 787 788 787 788 788 789 791 793 794 796 798 798 800 802 803 804 805 807 809 810 810 811 811 811 812 812 813 814 813 814 814 814 814 814
671 697 692 694 697 699 706 712 717 717 723 729 735 741 749 749 754 766 776 784 788 790 792 792 792 793 794 797 800 802 803 803 803 805 808 808 809 810 811 812 813 813 813 813 813 814 814 814 814 814 814 814 814 814
696 710 702 703 703 698 706 711 716 723 727 738 748 754 753 753 762 773 778 787 790 793 795 795 795 797 799 800 802 804 806 807 807 808 811 811 812 811 811 812 812 814 814 814 815 815 815 815 815 815 815 815 814 814
703 713 716 722 717 714 718 724 727 728 736 743 750 755 755 765 775 785 790 794 794 798 799 800 799 800 802 805 807 809 809 809 810 812 813 813 814 814 814 814 815 816 816 816 816 816 816 816 816 816 815 815 814 813
718 721 720 734 732 734 736 741 745 750 753 757 756 768 770 775 780 791 794 798 800 801 802 803 804 805 806 808 810 811 813 813 813 814 815 816 816 815 815 816 816 816 816 816 817 816 816 816 816 815 815 814 814 812
727 733 733 747 743 749 758 760 761 764 768 764 764 772 781 791 797 796 800 801 803 804 805 807 809 810 811 812 813 815 816 816 816 815 814 814 816 818 817 817 817 816 816 816 816 815 816 814 814 814 813 813 812 810
735 737 741 753 760 765 770 773 771 775 774 773 773 781 788 796 802 802 803 804 806 807 809 811 812 813 814 814 816 817 816 816 816 817 815 815 817 817 817 817 817 815 815 815 814 814 813 813 812 811 811 811 810 809
740 740 747 757 770 777 779 777 777 777 777 780 783 785 791 799 805 807 807 808 809 811 812 814 814 815 816 816 816 816 817 817 817 817 817 817 817 817 817 816 815 815 814 813 813 813 812 812 811 810 810 809 807 806
744 746 752 762 775 780 781 778 778 781 784 784 789 793 798 797 802 809 811 812 812 813 814 815 815 816 816 816 816 816 817 817 818 818 818 818 818 817 816 816 815 814 814 813 813 812 811 811 810 809 808 807 806 804
749 749 753 760 769 772 777 775 776 782 787 789 796 800 802 800 803 811 812 812 814 814 815 816 816 816 817 817 818 818 819 819 819 819 819 819 818 817 817 816 815 814 813 813 812 811 811 810 809 808 807 805 803 802
Wind_Speed
42 43 45 46 45 44 47 45 41 38 37 36 35 36 37 37 37 35 31 28 27 5 10 11 21 15 11 9 8 4 5 4 3 6 5 4 4 5 5 3 9 10 9 8 11 6 7 5 3 4 7 8 13 15
43 45 44 32 32 30 30 42 41 40 38 38 38 37 38 39 40 39 26 31 29 6 4 25 28 25 21 22 8 5 3 6 7 7 6 4 4 2 8 6 11 7 7 6 7 7 3 2 3 9 9 9 12 13
41 38 32 32 29 25 22 31 36 37 37 37 37 35 33 38 41 46 34 27 24 10 3 7 12 24 23 23 21 4 4 5 5 5 2 4 5 6 6 9 9 8 8 7 5 8 10 6 4 6 8 8 10 11
38 36 34 30 28 28 26 25 30 32 33 31 32 32 31 33 39 49 39 29 29 2 4 5 16 19 26 23 24 23 9 8 2 3 5 4 4 5 6 8 8 9 7 10 12 13 11 10 3 8 9 9 10 11
34 21 19 19 15 14 25 30 30 29 29 29 26 24 27 25 32 38 31 29 35 7 3 4 5 24 19 24 24 21 14 9 3 3 2 3 5 4 4 3 8 10 11 8 8 5 0 5 7 7 9 9 10 11
16 17 14 14 14 15 15 18 25 28 29 29 28 32 27 24 35 22 3 20 31 13 3 5 3 6 21 18 19 14 10 7 4 3 2 4 8 2 4 8 4 4 3 6 4 6 7 10 7 6 9 9 8 8
12 15 10 10 11 13 16 17 17 20 22 24 21 22 36 32 32 5 3 14 35 10 1 1 3 3 11 12 6 4 11 6 5 2 3 2 3 5 3 6 5 3 5 6 7 7 6 10 4 8 9 8 5 5
13 14 14 6 4 10 11 14 20 21 22 21 26 29 34 37 25 7 2 28 33 6 3 2 2 3 10 5 5 5 4 4 2 1 2 4 4 2 2 4 3 6 8 3 7 6 7 9 3 5 6 6 4 5
15 13 15 15 14 7 13 21 20 21 24 26 28 29 33 11 5 8 12 38 15 3 4 4 5 4 6 5 5 5 4 3 3 4 3 5 3 2 5 3 4 7 7 9 11 8 4 4 4 5 6 6 3 7
20 15 15 24 32 21 15 26 26 26 28 34 25 5 4 8 40 32 4 2 2 2 2 3 2 4 3 5 7 5 4 4 3 1 3 1 3 7 5 4 4 5 6 8 8 3 6 4 5 7 8 7 8 8
21 16 19 18 25 30 29 23 30 41 35 7 2 2 32 27 6 2 3 2 2 3 4 3 7 5 4 3 4 4 4 4 4 2 3 4 3 3 5 5 5 5 5 5 4 4 5 6 5 6 9 9 11 13
18 20 23 26 22 23 25 33 34 20 6 9 16 18 8 3 2 3 4 3 4 4 4 4 4 3 3 2 3 4 4 4 3 4 4 5 4 4 4 6 7 7 8 7 8 8 11 12 12 11 11 12 15 16
15 15 15 22 26 32 26 34 40 44 33 12 5 4 0 3 3 2 6 3 4 2 1 2 3 3 2 3 2 4 4 2 5 2 2 3 4 4 4 5 7 8 9 12 12 15 17 17 17 16 15 16 17 18
18 17 16 15 19 21 17 19 20 8 8 5 4 5 4 3 4 3 2 2 3 1 2 2 2 1 1 2 1 3 2 3 4 4 3 4 5 5 6 6 7 10 10 11 12 16 18 18 18 18 18 17 19 20
19 23 18 15 13 13 11 11 10 10 6 5 5 5 5 3 3 3 3 1 3 3 3 2 3 1 2 4 3 3 3 3 3 3 3 5 7 7 8 8 9 9 9 9 13 15 17 17 18 19 19 19 19 18
3 7 18 12 11 13 14 13 16 7 5 4 6 3 3 2 5 4 5 3 4 4 2 1 2 3 5 3 3 3 2 3 3 4 6 7 8 9 9 9 10 13 14 15 15 17 17 17 18 18 18 19 18 18
7 5 5 4 16 9 6 7 7 6 4 4 4 4 3 3 3 4 4 5 5 3 2 2 4 5 1 3 3 4 3 6 8 7 6 9 10 9 9 12 13 14 14 15 16 16 16 15 14 15 16 16 16 16
5 4 4 5 4 8 6 8 5 5 7 6 4 5 4 4 5 4 4 5 3 2 2 4 2 4 4 2 3 5 6 7 8 8 8 9 12 13 13 13 13 13 14 14 14 14 12 12 12 12 11 11 12 12
6 7 5 8 5 6 4 5 6 5 6 3 4 4 3 3 6 6 6 6 8 7 4 3 5 4 3 3 8 8 7 7 8 8 9 14 13 13 13 13 13 14 13 12 11 12 12 12 10 8 7 6 8 7
12 15 14 8 5 4 5 4 4 5 4 3 3 7 4 3 5 5 7 7 7 4 6 5 4 5 5 7 7 8 8 8 8 8 7 7 10 11 11 10 11 11 11 12 11 9 9 10 10 9 8 7 7 8
6 8 7 5 6 11 4 3 4 4 4 3 2 3 4 7 8 7 7 5 7 4 4 4 6 7 13 13 13 13 11 8 5 5 7 6 8 9 10 10 9 9 9 8 8 9 9 9 8 8 8 9 9 8
4 5 3 7 5 4 4 7 5 5 3 5 3 3 4 6 6 6 6 7 4 5 4 5 6 7 9 11 13 14 14 16 16 16 14 11 5 7 8 7 7 8 8 8 7 7 7 6 6 7 7 8 7 7
3 4 5 5 5 5 4 1 3 2 3 3 2 3 3 3 3 2 4 4 4 7 8 9 13 15 16 15 16 16 13 13 13 12 12 11 11 9 9 8 8 7 7 7 5 5 5 5 5 5 5 4 4 5
6 6 5 4 4 4 2 3 3 3 3 3 3 3 3 3 2 4 4 3 3 5 6 8 10 8 12 13 9 12 12 12 13 12 9 7 8 8 7 7 7 7 6 5 5 5 5 4 3 3 2 2 2 1
5 7 4 6 3 4 4 3 2 3 3 3 3 3 3 1 3 3 3 2 2 3 3 6 8 8 7 6 9 9 7 7 8 9 8 7 7 6 5 5 5 4 3 2 3 3 4 3 3 3 3 2 2 2
7 6 5 3 3 3 2 4 3 3 3 3 4 2 1 3 4 4 3 4 4 3 4 4 5 5 5 7 6 7 7 6 5 7 6 5 4 2 2 1 1 3 3 3 1 1 1 0 1 1 2 2 3 3
4 5 4 4 2 3 5 4 4 5 4 3 2 2 2 4 3 2 4 3 3 4 5 5 5 7 8 9 8 7 6 6 8 8 6 6 5 4 3 2 2 2 2 3 3 2 1 0 1 1 3 3 3 4
4 5 4 5 5 6 4 4 4 3 3 2 2 4 3 3 3 2 3 5 9 8 9 10 10 10 10 10 10 10 10 10 10 8 7 7 6 6 6 5 4 2 1 1 1 1 2 3 3 3 3 4 4 4
5 3 3 6 5 6 7 4 3 3 3 1 3 3 3 3 3 4 7 8 8 10 10 10 10 10 9 7 7 7 6 3 2 2 2 1 1 1 1 2 1 2 2 1 2 2 4 3 3 4 5 5 5 5
4 3 4 5 5 6 5 4 3 3 3 3 4 7 6 5 8 8 9 8 7 8 8 8 7 4 5 5 5 3 1 2 2 2 2 2 2 2 1 1 3 4 3 2 2 4 4 4 4 5 5 5 5 5
2 3 5 6 5 6 6 8 12 11 7 8 9 10 7 4 5 9 7 7 8 9 8 6 5 5 4 3 2 2 2 3 4 4 4 3 2 1 3 4 4 3 3 3 3 3 3 3 3 4 5 5 5 5
3 4 5 5 5 4 1 1 3 3 3 3 3 2 2 3 3 2 2 3 4 4 4 4 3 3 2 4 4 5 5 5 4 3 3 3 3 3 3 3 3 4 4 4 3 3 4 4 4 4 4 5 6 6
7 9 7 6 4 6 4 3 3 4 3 2 2 2 2 2 3 3 2 3 3 3 4 5 7 7 7 7 7 6 5 4 3 2 2 3 4 4 5 5 5 5 5 4 4 5 5 5 5 5 6 7 8 8
Wind_Direction
288 286 284 280 272 265 246 241 239 239 240 240 241 241 237 234 230 217 223 215 206 230 262 242 236 230 220 226 231 197 144 168 170 207 210 184 231 214 251 174 165 180 194 198 224 229 240 219 192 221 13 332 344 331
292 292 291 282 281 272 258 234 233 235 239 242 242 240 236 233 226 216 223 213 209 217 281 232 233 234 225 223 196 226 227 144 178 208 214 211 207 213 222 226 196 211 215 198 208 213 95 138 26 21 10 354 348 335
298 293 288 283 278 262 250 230 232 236 239 239 240 235 228 228 223 208 211 204 202 224 258 244 226 232 236 221 213 217 244 194 208 228 233 219 229 195 206 232 245 232 239 237 214 228 245 298 76 31 3 354 338 340
298 296 293 292 282 249 239 234 231 232 233 231 230 231 229 225 221 204 202 203 201 179 233 237 227 222 220 215 209 216 239 227 141 252 228 219 237 215 229 247 230 242 197 234 249 254 269 262 44 11 348 350 337 331
303 296 295 287 278 248 237 234 230 227 228 233 221 212 208 202 189 186 195 201 195 196 199 184 189 223 210 209 213 211 219 237 191 196 176 221 251 237 220 250 246 232 245 236 259 72 284 293 340 345 336 346 342 334
310 307 295 287 267 245 227 223 223 225 226 224 220 209 193 184 179 138 143 182 175 164 196 180 116 164 204 207 212 211 220 221 206 198 169 214 207 236 255 243 228 84 42 21 10 334 309 295 318 8 343 350 355 345
357 23 2 278 258 236 225 214 207 202 201 202 196 182 183 174 161 151 156 161 188 156 50 120 167 110 183 189 195 203 240 241 241 210 184 235 246 214 204 238 100 8 355 1 27 353 305 51 357 2 358 347 359 11
22 13 26 41 337 233 201 195 198 194 190 182 176 166 173 173 167 219 162 157 154 125 199 205 141 164 169 177 188 188 208 198 163 231 221 224 233 235 223 63 14 3 335 283 2 342 303 296 17 12 358 355 352 32
23 23 43 23 32 160 179 178 165 160 163 163 161 162 142 130 153 150 167 148 148 135 167 188 175 174 178 165 179 169 148 188 186 194 226 169 158 216 54 42 19 356 345 322 321 317 7 55 46 33 20 9 26 49
30 38 61 48 49 76 135 157 150 149 140 138 126 89 117 114 122 121 62 96 119 197 196 203 132 164 173 173 180 159 172 196 221 198 112 209 86 96 57 51 3 343 333 332 323 316 346 9 32 49 53 48 59 63
38 47 70 55 50 58 117 143 143 134 127 100 104 123 115 128 93 84 121 153 118 165 195 196 198 147 179 158 150 206 174 181 219 143 210 160 140 78 32 35 21 14 8 17 28 35 40 44 53 74 70 69 73 73
46 68 76 74 76 78 85 104 120 121 100 116 113 91 63 42 112 128 127 131 190 179 153 175 179 182 152 135 193 174 193 187 198 140 187 167 86 62 43 38 34 36 40 49 50 64 66 67 73 80 80 80 78 81
67 89 55 64 84 97 103 99 110 113 111 105 79 90 208 15 95 188 160 137 141 90 83 154 156 154 164 206 196 187 188 113 134 123 88 58 82 61 51 57 61 64 71 71 70 70 73 73 73 81 83 79 84 80
89 81 69 75 102 117 104 97 133 136 59 58 46 59 28 69 71 66 72 77 45 321 351 318 118 124 32 127 275 106 77 157 144 162 102 92 78 77 73 76 81 74 73 80 80 80 78 76 76 76 78 81 85 80
79 67 68 75 73 85 96 102 93 88 55 61 30 50 58 46 44 20 348 262 11 311 291 154 84 234 58 88 43 123 143 106 29 87 95 104 99 100 94 91 90 86 84 82 84 84 83 83 82 76 71 73 75 76
114 52 44 58 115 91 86 89 56 59 56 60 47 79 21 73 44 28 16 20 358 333 254 106 120 78 53 58 84 52 153 78 105 108 109 113 101 95 91 89 89 89 87 87 82 82 79 78 82 83 77 73 74 77
81 67 46 64 79 105 80 71 56 55 64 54 58 34 40 62 28 3 347 346 328 314 50 17 52 47 98 71 73 22 48 105 115 103 97 102 107 104 100 94 91 91 90 87 86 84 84 85 86 85 82 81 81 80
77 41 58 158 174 65 51 45 78 72 72 50 69 35 51 41 16 27 360 355 334 58 37 61 62 51 41 56 82 111 95 87 88 94 93 91 91 90 91 92 88 88 85 83 83 84 84 85 83 82 86 89 87 83
76 67 72 96 133 86 65 49 48 84 62 58 46 36 52 46 28 19 34 38 54 59 81 55 56 46 55 67 111 110 109 107 101 91 83 79 83 88 89 87 84 83 82 81 82 81 79 74 77 82 85 89 88 87
95 76 73 99 79 82 77 57 64 81 66 67 57 46 50 27 15 37 43 40 49 59 55 45 44 40 77 79 89 100 106 112 115 106 92 83 82 83 79 86 88 94 92 88 81 86 90 82 69 68 70 73 85 78
88 55 61 58 61 65 79 78 69 90 125 91 127 59 64 49 47 44 37 39 50 35 64 61 74 66 69 76 90 103 101 108 102 102 116 111 93 92 87 82 82 83 85 83 87 81 77 77 72 69 74 76 79 81
39 46 73 50 77 74 76 29 96 136 97 116 109 68 67 57 49 39 43 48 58 37 33 72 79 89 80 72 74 82 94 96 95 96 97 106 101 90 78 74 85 83 79 76 81 88 89 86 84 84 85 83 83 87
47 42 55 56 78 69 97 247 76 60 102 99 97 69 54 59 53 44 71 45 65 38 63 77 81 84 90 86 83 75 79 93 91 89 88 89 90 88 86 77 75 84 87 77 83 98 103 100 90 96 96 92 99 102
44 47 38 54 70 98 117 65 72 84 86 73 69 77 57 55 73 71 67 57 45 45 76 90 100 101 91 83 79 78 79 91 95 89 84 95 95 85 84 83 78 76 82 92 94 99 101 100 100 93 90 94 82 79
75 11 7 64 60 101 93 90 78 84 87 72 87 76 69 25 75 73 83 97 73 63 59 81 88 87 98 95 91 79 65 81 96 97 76 81 97 106 99 94 86 78 72 91 88 92 86 76 67 58 49 36 21 357
74 22 29 29 52 81 87 105 98 99 97 78 64 75 59 76 75 86 97 129 103 93 91 91 108 110 96 98 110 96 74 66 82 94 74 54 49 49 99 118 124 82 44 63 59 75 91 48 8 356 337 330 322 310
83 55 58 33 6 83 98 75 61 71 73 76 94 88 79 76 92 96 125 99 114 103 94 74 83 104 112 106 94 78 68 67 82 95 91 73 64 59 59 59 75 75 68 67 61 54 42 357 299 310 317 311 307 288
71 33 72 18 65 31 82 63 51 62 79 50 98 54 74 66 104 84 63 101 115 113 101 88 84 93 97 97 100 103 97 97 94 92 91 81 76 75 77 82 93 91 50 265 292 321 348 313 277 285 292 303 304 304
59 48 79 53 59 53 40 43 62 55 8 11 97 102 101 65 43 103 107 114 118 118 109 102 89 97 95 98 105 113 116 76 23 28 32 44 165 133 107 82 50 5 357 343 324 318 325 310 292 282 289 289 288 294
57 19 89 62 53 47 33 11 57 43 36 44 101 113 95 83 62 81 103 107 111 111 110 116 122 124 123 130 133 131 54 4 8 348 350 15 50 150 141 342 335 329 330 327 308 307 303 301 287 303 303 300 301 301
50 80 78 60 77 87 85 83 97 84 80 74 79 89 95 101 83 51 75 97 116 120 118 115 110 112 106 99 110 129 115 49 69 79 86 89 87 10 320 322 330 339 342 336 332 333 332 325 316 309 307 310 311 315
36 62 119 108 130 157 227 68 65 74 73 77 71 86 114 109 95 93 66 104 121 128 131 113 122 124 113 102 94 97 106 113 95 83 71 49 24 7 6 1 358 355 347 344 341 336 333 329 322 321 318 316 314 312
100 89 94 107 126 163 159 142 88 110 72 81 74 46 51 47 113 114 153 142 146 107 130 117 116 115 113 109 108 107 103 100 95 80 38 20 8 359 354 349 342 337 333 328 320 320 321 319 314 310 308 310 311 311